Arklow Spray — C6VK8 — position and weather

sailwx.info

Track history (hours):
 
Tides and Currents Weather Stations Pressure Air Temp Water Temp Dewpoint Dewpoint Depression Visibility Wind Speed Wind Dir Waves Ship Positions

Arklow Spray

Last reported at 2014-Jul-29 04:33 UTC. Time now 2014-Jul-29 04:36 UTC.
Position N 59°55' E 030°15'.

Length 90 m; draft 3.3 m.

Type: Cargo ship. MMSI: 309914000.

Date/timePositionNaut miles runAvg speedWind from/ knotsBaromVisibWave heightAir tempDewpointWater temp
2014-Jul-29 04:33N 59°55' E 030°15'0 0.0
2014-Jul-29 03:33N 59°55' E 030°15'0 0.0
2014-Jul-29 02:33N 59°55' E 030°15'0 0.0
2014-Jul-29 01:30N 59°55' E 030°15'0 0.0
2014-Jul-29 00:33N 59°55' E 030°15'0 0.0
2014-Jul-28 23:30N 59°55' E 030°15'0 0.0
2014-Jul-28 22:33N 59°55' E 030°15'0 0.0
2014-Jul-28 21:33N 59°55' E 030°15'0 0.0
2014-Jul-28 20:33N 59°55' E 030°15'0 0.0
2014-Jul-28 19:33N 59°55' E 030°15'0 0.0
2014-Jul-28 18:33N 59°55' E 030°15'0 0.0
2014-Jul-28 17:33N 59°55' E 030°15'0 0.0
2014-Jul-28 16:15N 59°55' E 030°15'0 0.0
2014-Jul-28 15:33N 59°55' E 030°15'0 0.0
2014-Jul-28 14:33N 59°55' E 030°15'0 0.0
2014-Jul-28 13:33N 59°55' E 030°15'0 0.0
2014-Jul-28 12:33N 59°55' E 030°15'0 0.0
2014-Jul-28 11:33N 59°55' E 030°15'0 0.0
2014-Jul-28 10:33N 59°55' E 030°15'0 0.0
2014-Jul-28 09:33N 59°55' E 030°15'0 0.0
2014-Jul-28 08:30N 59°55' E 030°15'0 0.0
2014-Jul-28 07:33N 59°55' E 030°15'0 0.0
2014-Jul-28 06:33N 59°55' E 030°15'0 0.0
2014-Jul-28 05:33N 59°55' E 030°15'0 0.0
2014-Jul-28 04:33N 59°55' E 030°15'0 0.0
2014-Jul-28 03:33N 59°55' E 030°15'2 2.0
2014-Jul-28 02:33N 59°53' E 030°12'  
2014-Jul-25 11:33N 60°06' E 027°33'1111.0
2014-Jul-25 10:33N 60°01' E 027°14'1110.6
2014-Jul-25 09:33N 59°59' E 026°53'1111.0
2014-Jul-25 08:33N 59°58' E 026°31'1111.1
2014-Jul-25 07:33N 59°55' E 026°10'1111.0
2014-Jul-25 06:33N 59°52' E 025°49'1110.8
2014-Jul-25 05:33N 59°50' E 025°28'1110.8
2014-Jul-25 04:33N 59°47' E 025°07'1310.9
2014-Jul-25 03:21N 59°45' E 024°41'910.9
2014-Jul-25 02:33N 59°43' E 024°25'1110.9
2014-Jul-25 01:33N 59°40' E 024°04'1110.6
2014-Jul-25 00:33N 59°36' E 023°45'1110.7
2014-Jul-24 23:32N 59°31' E 023°25'1111.0
2014-Jul-24 22:33N 59°22' E 023°14'1110.6
2014-Jul-24 21:33N 59°12' E 023°05'1310.2
2014-Jul-24 20:16N 58°59' E 023°07'  
2014-Jul-20 04:32N 57°05' E 019°32'1111.0
2014-Jul-20 03:33N 56°60' E 019°15'1110.7
2014-Jul-20 02:33N 56°55' E 018°57'1110.6
2014-Jul-20 01:34N 56°50' E 018°40'1110.3
2014-Jul-20 00:30N 56°44' E 018°23'1310.4
2014-Jul-19 23:16N 56°36' E 018°05'710.6
2014-Jul-19 22:33N 56°32' E 017°54'1010.5
2014-Jul-19 21:34N 56°25' E 017°39'1010.4
2014-Jul-19 20:34N 56°19' E 017°24'1110.7
2014-Jul-19 19:34N 56°12' E 017°09'1110.7
2014-Jul-19 18:33N 56°06' E 016°54'1110.7
2014-Jul-19 17:34N 55°60' E 016°38'1110.6
2014-Jul-19 16:33N 55°55' E 016°21'1110.5
2014-Jul-19 15:32N 55°50' E 016°05'1010.5
2014-Jul-19 14:34N 55°44' E 015°49'1010.3
2014-Jul-19 13:34N 55°39' E 015°34'1110.5
2014-Jul-19 12:34N 55°35' E 015°17'1110.6
2014-Jul-19 11:29N 55°29' E 014°59'1010.6
2014-Jul-19 10:33N 55°24' E 014°44'1010.5
2014-Jul-19 09:34N 55°17' E 014°30'10 9.6
2014-Jul-19 08:33N 55°10' E 014°19'10 9.9
2014-Jul-19 07:33N 55°11' E 014°01'1010.3
2014-Jul-19 06:34N 55°12' E 013°44'1110.5
2014-Jul-19 05:34N 55°13' E 013°25'1010.3
2014-Jul-19 04:33N 55°14' E 013°07'  
Track history (hours):
 
Tides and Currents Weather Stations Pressure Air Temp Water Temp Dewpoint Dewpoint Depression Visibility Wind Speed Wind Dir Waves Ship Positions

Arklow Spray

Last reported at 2014-Jul-29 04:33 UTC. Time now 2014-Jul-29 04:36 UTC.
Position N 59°55' E 030°15'.

Length 90 m; draft 3.3 m.

Type: Cargo ship. MMSI: 309914000.

Date/timePositionNaut miles runAvg speedWind from/ knotsBaromVisibWave heightAir tempDewpointWater temp
2014-Jul-29 04:33N 59°55' E 030°15'0 0.0
2014-Jul-29 03:33N 59°55' E 030°15'0 0.0
2014-Jul-29 02:33N 59°55' E 030°15'0 0.0
2014-Jul-29 01:30N 59°55' E 030°15'0 0.0
2014-Jul-29 00:33N 59°55' E 030°15'0 0.0
2014-Jul-28 23:30N 59°55' E 030°15'0 0.0
2014-Jul-28 22:33N 59°55' E 030°15'0 0.0
2014-Jul-28 21:33N 59°55' E 030°15'0 0.0
2014-Jul-28 20:33N 59°55' E 030°15'0 0.0
2014-Jul-28 19:33N 59°55' E 030°15'0 0.0
2014-Jul-28 18:33N 59°55' E 030°15'0 0.0
2014-Jul-28 17:33N 59°55' E 030°15'0 0.0
2014-Jul-28 16:15N 59°55' E 030°15'0 0.0
2014-Jul-28 15:33N 59°55' E 030°15'0 0.0
2014-Jul-28 14:33N 59°55' E 030°15'0 0.0
2014-Jul-28 13:33N 59°55' E 030°15'0 0.0
2014-Jul-28 12:33N 59°55' E 030°15'0 0.0
2014-Jul-28 11:33N 59°55' E 030°15'0 0.0
2014-Jul-28 10:33N 59°55' E 030°15'0 0.0
2014-Jul-28 09:33N 59°55' E 030°15'0 0.0
2014-Jul-28 08:30N 59°55' E 030°15'0 0.0
2014-Jul-28 07:33N 59°55' E 030°15'0 0.0
2014-Jul-28 06:33N 59°55' E 030°15'0 0.0
2014-Jul-28 05:33N 59°55' E 030°15'0 0.0
2014-Jul-28 04:33N 59°55' E 030°15'0 0.0
2014-Jul-28 03:33N 59°55' E 030°15'2 2.0
2014-Jul-28 02:33N 59°53' E 030°12'  
2014-Jul-25 11:33N 60°06' E 027°33'1111.0
2014-Jul-25 10:33N 60°01' E 027°14'1110.6
2014-Jul-25 09:33N 59°59' E 026°53'1111.0
2014-Jul-25 08:33N 59°58' E 026°31'1111.1
2014-Jul-25 07:33N 59°55' E 026°10'1111.0
2014-Jul-25 06:33N 59°52' E 025°49'1110.8
2014-Jul-25 05:33N 59°50' E 025°28'1110.8
2014-Jul-25 04:33N 59°47' E 025°07'1310.9
2014-Jul-25 03:21N 59°45' E 024°41'910.9
2014-Jul-25 02:33N 59°43' E 024°25'1110.9
2014-Jul-25 01:33N 59°40' E 024°04'1110.6
2014-Jul-25 00:33N 59°36' E 023°45'1110.7
2014-Jul-24 23:32N 59°31' E 023°25'1111.0
2014-Jul-24 22:33N 59°22' E 023°14'1110.6
2014-Jul-24 21:33N 59°12' E 023°05'1310.2
2014-Jul-24 20:16N 58°59' E 023°07'  
2014-Jul-20 04:32N 57°05' E 019°32'1111.0
2014-Jul-20 03:33N 56°60' E 019°15'1110.7
2014-Jul-20 02:33N 56°55' E 018°57'1110.6
2014-Jul-20 01:34N 56°50' E 018°40'1110.3
2014-Jul-20 00:30N 56°44' E 018°23'1310.4
2014-Jul-19 23:16N 56°36' E 018°05'710.6
2014-Jul-19 22:33N 56°32' E 017°54'1010.5
2014-Jul-19 21:34N 56°25' E 017°39'1010.4
2014-Jul-19 20:34N 56°19' E 017°24'1110.7
2014-Jul-19 19:34N 56°12' E 017°09'1110.7
2014-Jul-19 18:33N 56°06' E 016°54'1110.7
2014-Jul-19 17:34N 55°60' E 016°38'1110.6
2014-Jul-19 16:33N 55°55' E 016°21'1110.5
2014-Jul-19 15:32N 55°50' E 016°05'1010.5
2014-Jul-19 14:34N 55°44' E 015°49'1010.3
2014-Jul-19 13:34N 55°39' E 015°34'1110.5
2014-Jul-19 12:34N 55°35' E 015°17'1110.6
2014-Jul-19 11:29N 55°29' E 014°59'1010.6
2014-Jul-19 10:33N 55°24' E 014°44'1010.5
2014-Jul-19 09:34N 55°17' E 014°30'10 9.6
2014-Jul-19 08:33N 55°10' E 014°19'10 9.9
2014-Jul-19 07:33N 55°11' E 014°01'1010.3
2014-Jul-19 06:34N 55°12' E 013°44'1110.5
2014-Jul-19 05:34N 55°13' E 013°25'1010.3
2014-Jul-19 04:33N 55°14' E 013°07'  

Dump ship's entire track history